| time (UTC) | temp F | wind direction | speed knots | gust knots | rain 1hr in | rain 24hr in | rain mn in | humidity % | barometer mb |
| 20260904232537 | 56 | 192 | 0.9 | 4.3 | 0.02 | 0.24 | 0.02 | 98 | 1013.9 |
| 20260904232037 | 56 | 183 | 0.9 | 6.1 | 0.02 | 0.24 | 0.02 | 98 | 1013.5 |
| 20260904231536 | 56 | 241 | 1.7 | 6.1 | 0.02 | 0.24 | 0.02 | 98 | 1013.8 |
| 20260904231036 | 56 | 199 | 1.7 | 5.2 | 0.02 | 0.24 | 0.02 | 98 | 1013.9 |
| 20260904230535 | 57 | 205 | 0.9 | 7.0 | 0.02 | 0.24 | 0.02 | 98 | 1014.0 |
| 20260904230035 | 57 | 284 | 2.6 | 12.2 | 0.02 | 0.24 | 0.02 | 98 | 1013.6 |
| 20260904225534 | 57 | 235 | 3.5 | 14.8 | 0.03 | 0.24 | 0.02 | 98 | 1013.7 |
| 20260904225032 | 57 | 103 | 3.5 | 12.2 | 0.03 | 0.24 | 0.02 | 98 | 1013.3 |
| 20260904224533 | 57 | 247 | 4.3 | 12.2 | 0.04 | 0.24 | 0.02 | 98 | 1013.5 |
| 20260904224032 | 57 | 227 | 1.7 | 10.4 | 0.05 | 0.24 | 0.02 | 98 | 1013.5 |
| 20260904223530 | 57 | 292 | 1.7 | 10.4 | 0.06 | 0.24 | 0.02 | 98 | 1013.2 |
| 20260904223030 | 57 | 142 | 0.0 | 3.5 | 0.06 | 0.22 | 0.01 | 98 | 1013.3 |
| 20260904222529 | 57 | 103 | 0.0 | 0.9 | 0.07 | 0.22 | 0.01 | 98 | 1013.4 |
| 20260904222029 | 57 | 269 | 0.0 | 0.9 | 0.10 | 0.21 | 0.00 | 98 | 1013.4 |
| 20260904221529 | 57 | 211 | 0.0 | 5.2 | 0.13 | 0.21 | 0.00 | 98 | 1013.2 |
| 20260904221028 | 57 | 191 | 2.6 | 7.0 | 0.14 | 0.21 | 0.00 | 98 | 1013.2 |
| 20260904220527 | 57 | 238 | 0.9 | 7.0 | 0.14 | 0.21 | 0.00 | 98 | 1013.1 |
| 20260904220043 | 57 | 218 | 1.7 | 7.8 | 0.14 | 0.21 | 0.00 | 97 | 1013.2 |
| 20260904215525 | 57 | 234 | 1.7 | 7.8 | 0.13 | 0.20 | 0.20 | 97 | 1013.1 |
| 20260904215025 | 57 | 192 | 0.9 | 7.0 | 0.13 | 0.20 | 0.20 | 97 | 1012.7 |
| 20260904214526 | 57 | 255 | 0.0 | 7.0 | 0.13 | 0.20 | 0.20 | 97 | 1012.8 |
| 20260904214025 | 57 | 244 | 0.0 | 7.8 | 0.11 | 0.18 | 0.18 | 97 | 1013.0 |
| 20260904213528 | 57 | 155 | 0.0 | 7.0 | 0.10 | 0.17 | 0.17 | 97 | 1013.0 |
| 20260904213025 | 57 | 273 | 1.7 | 6.1 | 0.09 | 0.17 | 0.17 | 96 | 1012.9 |
| 20260904212527 | 57 | 202 | 0.0 | 7.8 | 0.08 | 0.15 | 0.15 | 96 | 1013.1 |
| 20260904212027 | 57 | 207 | 0.9 | 7.8 | 0.04 | 0.11 | 0.11 | 95 | 1012.8 |
| 20260904211524 | 57 | 191 | 0.0 | 0.0 | 0.01 | 0.08 | 0.08 | 95 | 1012.6 |
| 20260904211023 | 57 | 200 | 0.0 | 0.0 | 0.00 | 0.07 | 0.07 | 95 | 1012.7 |
| 20260904210523 | 57 | 207 | 0.0 | 0.9 | 0.00 | 0.07 | 0.07 | 95 | 1012.7 |
| 20260904210033 | 57 | 85 | 0.0 | 0.9 | 0.00 | 0.07 | 0.07 | 95 | 1012.4 |
| 20260904205523 | 57 | 104 | 0.0 | 0.0 | 0.00 | 0.07 | 0.07 | 95 | 1012.5 |
| 20260904205026 | 57 | 136 | 0.0 | 0.0 | 0.00 | 0.07 | 0.07 | 95 | 1012.8 |
| 20260904204522 | 56 | 85 | 0.0 | 0.0 | 0.00 | 0.07 | 0.07 | 95 | 1012.5 |
| 20260904204022 | 56 | 109 | 0.0 | 0.0 | 0.00 | 0.07 | 0.07 | 95 | 1012.3 |
| 20260904203526 | 56 | 84 | 0.0 | 0.9 | 0.00 | 0.07 | 0.07 | 95 | 1012.0 |
| 20260904203032 | 56 | 134 | 0.0 | 7.8 | 0.00 | 0.07 | 0.07 | 94 | 1011.8 |
| 20260904202521 | 57 | 101 | 0.9 | 7.8 | 0.00 | 0.07 | 0.07 | 95 | 1011.7 |
| 20260904202021 | 57 | 95 | 0.0 | 0.0 | 0.00 | 0.07 | 0.07 | 95 | 1012.1 |
| 20260904201521 | 57 | 207 | 0.0 | 3.5 | 0.00 | 0.07 | 0.07 | 94 | 1012.2 |
| 20260904201026 | 57 | 226 | 0.0 | 3.5 | 0.00 | 0.07 | 0.07 | 94 | 1012.0 |
| 20260904200520 | 57 | 91 | 0.0 | 0.9 | 0.00 | 0.07 | 0.07 | 94 | 1011.4 |
| 20260904200024 | 57 | 94 | 0.0 | 0.0 | 0.00 | 0.07 | 0.07 | 94 | 1011.7 |
| 20260904195522 | 57 | 69 | 0.0 | 4.3 | 0.00 | 0.07 | 0.07 | 94 | 1012.1 |
| 20260904195018 | 57 | 68 | 0.9 | 4.3 | 0.00 | 0.07 | 0.07 | 94 | 1012.1 |
| 20260904194541 | 57 | 99 | 0.9 | 6.1 | 0.00 | 0.07 | 0.07 | 94 | 1012.2 |
| 20260904194017 | 57 | 94 | 1.7 | 6.1 | 0.00 | 0.07 | 0.07 | 93 | 1012.3 |
| 20260904193519 | 57 | 171 | 0.0 | 3.5 | 0.00 | 0.07 | 0.07 | 94 | 1012.5 |
| 20260904193016 | 58 | 172 | 0.9 | 6.1 | 0.00 | 0.07 | 0.07 | 93 | 1012.2 |
| 20260904192515 | 58 | 123 | 1.7 | 6.1 | 0.01 | 0.07 | 0.07 | 93 | 1012.3 |
| 20260904192014 | 58 | 128 | 0.0 | 5.2 | 0.01 | 0.07 | 0.07 | 93 | 1012.8 |
| 20260904191522 | 58 | 103 | 0.9 | 5.2 | 0.01 | 0.07 | 0.07 | 93 | 1012.5 |
| 20260904191015 | 59 | 133 | 0.0 | 1.7 | 0.02 | 0.07 | 0.07 | 93 | 1013.2 |
| 20260904190514 | 59 | 133 | 0.0 | 2.6 | 0.02 | 0.07 | 0.07 | 93 | 1012.6 |
| 20260904190014 | 59 | 133 | 0.0 | 2.6 | 0.02 | 0.07 | 0.07 | 93 | 1012.6 |
| 20260904185517 | 59 | 134 | 0.0 | 2.6 | 0.02 | 0.07 | 0.07 | 92 | 1012.6 |
| 20260904185013 | 60 | 134 | 0.0 | 2.6 | 0.02 | 0.07 | 0.07 | 93 | 1012.6 |
| 20260904184513 | 60 | 129 | 0.0 | 2.6 | 0.06 | 0.07 | 0.07 | 94 | 1012.4 |
| 20260904184012 | 60 | 128 | 0.0 | 2.6 | 0.06 | 0.07 | 0.07 | 93 | 1012.5 |
| 20260904183512 | 60 | 129 | 0.0 | 2.6 | 0.06 | 0.07 | 0.07 | 93 | 1012.4 |
| 20260904183012 | 61 | 100 | 0.0 | 3.5 | 0.06 | 0.06 | 0.06 | 92 | 1012.3 |
| 20260904182515 | 61 | 97 | 0.0 | 4.3 | 0.06 | 0.06 | 0.06 | 92 | 1012.1 |
| 20260904182011 | 62 | 96 | 0.0 | 5.2 | 0.06 | 0.06 | 0.06 | 92 | 1011.9 |
| 20260904181511 | 62 | 91 | 0.9 | 7.8 | 0.06 | 0.06 | 0.06 | 92 | 1011.9 |
| 20260904181012 | 63 | 105 | 1.7 | 7.8 | 0.05 | 0.06 | 0.06 | 91 | 1011.7 |
| 20260904180514 | 64 | 69 | 1.7 | 5.2 | 0.05 | 0.06 | 0.06 | 89 | 1011.7 |
| 20260904180010 | 65 | 142 | 0.9 | 9.6 | 0.05 | 0.06 | 0.06 | 87 | 1011.8 |
| 20260904175510 | 67 | 101 | 2.6 | 9.6 | 0.05 | 0.06 | 0.06 | 85 | 1011.4 |
| 20260904175010 | 69 | 86 | 3.5 | 11.3 | 0.03 | 0.04 | 0.04 | 81 | 1011.6 |
| 20260904174509 | 72 | 74 | 2.6 | 11.3 | 0.00 | 0.01 | 0.01 | 76 | 1011.3 |
| 20260904174008 | 73 | 138 | 6.1 | 9.6 | 0.00 | 0.01 | 0.01 | 73 | 1010.4 |
| 20260904173507 | 73 | 193 | 1.7 | 7.8 | 0.00 | 0.01 | 0.01 | 73 | 1010.0 |
| 20260904173007 | 73 | 215 | 2.6 | 8.7 | 0.00 | 0.01 | 0.01 | 73 | 1010.0 |
| 20260904172507 | 73 | 252 | 1.7 | 10.4 | 0.00 | 0.01 | 0.01 | 73 | 1010.0 |
| 20260904172007 | 73 | 268 | 3.5 | 10.4 | 0.00 | 0.01 | 0.01 | 73 | 1009.9 |
| 20260904171506 | 73 | 282 | 3.5 | 9.6 | 0.00 | 0.01 | 0.01 | 73 | 1010.0 |
| 20260904171006 | 73 | 241 | 2.6 | 10.4 | 0.00 | 0.01 | 0.01 | 72 | 1010.0 |
| 20260904170506 | 74 | 244 | 4.3 | 10.4 | 0.00 | 0.01 | 0.01 | 72 | 1010.0 |
| 20260904170006 | 74 | 241 | 3.5 | 8.7 | 0.00 | 0.01 | 0.01 | 72 | 1010.1 |
| 20260904165506 | 74 | 178 | 2.6 | 9.6 | 0.00 | 0.01 | 0.01 | 72 | 1010.1 |
| 20260904165005 | 74 | 228 | 3.5 | 13.0 | 0.00 | 0.01 | 0.01 | 72 | 1010.1 |
| 20260904164507 | 74 | 209 | 3.5 | 13.0 | 0.00 | 0.01 | 0.01 | 73 | 1010.1 |
| 20260904164005 | 73 | 251 | 2.6 | 10.4 | 0.00 | 0.01 | 0.01 | 72 | 1010.1 |
| 20260904163502 | 74 | 257 | 2.6 | 9.6 | 0.00 | 0.01 | 0.01 | 73 | 1010.3 |
| 20260904163109 | 74 | 222 | 2.6 | 8.7 | 0.00 | 0.01 | 0.01 | 73 | 1010.3 |
| 20260904162502 | 73 | 227 | 3.5 | 8.7 | 0.00 | 0.01 | 0.01 | 73 | 1010.5 |
| 20260904162000 | 73 | 237 | 2.6 | 8.7 | 0.00 | 0.01 | 0.01 | 73 | 1010.5 |
| 20260904161600 | 74 | 273 | 3.5 | 10.4 | 0.00 | 0.01 | 0.01 | 73 | 1010.6 |
| 20260904161104 | 74 | 253 | 3.5 | 10.4 | 0.00 | 0.01 | 0.01 | 73 | 1010.6 |
| 20260904160603 | 74 | 264 | 3.5 | 9.6 | 0.00 | 0.01 | 0.01 | 74 | 1010.5 |
| 20260904155602 | 73 | 229 | 4.3 | 9.6 | 0.00 | 0.01 | 0.01 | 73 | 1010.6 |
| 20260904155101 | 74 | 222 | 4.3 | 12.2 | 0.00 | 0.01 | 0.01 | 73 | 1010.7 |
| 20260904154558 | 74 | 289 | 3.5 | 12.2 | 0.00 | 0.01 | 0.01 | 72 | 1010.8 |
| 20260904154102 | 74 | 241 | 4.3 | 12.2 | 0.00 | 0.01 | 0.01 | 72 | 1010.9 |
| 20260904153658 | 74 | 250 | 4.3 | 13.9 | 0.00 | 0.01 | 0.01 | 73 | 1010.8 |
| 20260904153105 | 74 | 313 | 6.1 | 13.9 | 0.00 | 0.01 | 0.01 | 72 | 1010.9 |
| 20260904152557 | 74 | 234 | 3.5 | 9.6 | 0.00 | 0.01 | 0.01 | 73 | 1010.7 |
| 20260904152056 | 74 | 244 | 4.3 | 12.2 | 0.00 | 0.01 | 0.01 | 73 | 1010.8 |
| 20260904151600 | 74 | 276 | 4.3 | 12.2 | 0.00 | 0.01 | 0.01 | 72 | 1010.8 |
| 20260904151056 | 74 | 265 | 5.2 | 11.3 | 0.00 | 0.01 | 0.01 | 72 | 1010.8 |
| 20260904150556 | 75 | 203 | 5.2 | 13.9 | 0.00 | 0.01 | 0.01 | 72 | 1010.9 |
| 20260904150056 | 75 | 286 | 6.1 | 13.9 | 0.00 | 0.01 | 0.01 | 72 | 1010.9 |
| 20260904145556 | 75 | 315 | 4.3 | 11.3 | 0.00 | 0.01 | 0.01 | 72 | 1010.8 |
| 20260904145055 | 75 | 259 | 4.3 | 15.6 | 0.00 | 0.01 | 0.01 | 71 | 1010.9 |
| 20260904144556 | 75 | 279 | 7.0 | 15.6 | 0.00 | 0.01 | 0.01 | 71 | 1011.0 |
| 20260904144054 | 75 | 246 | 6.1 | 13.0 | 0.00 | 0.01 | 0.01 | 71 | 1010.9 |
| 20260904143553 | 75 | 215 | 6.1 | 13.0 | 0.00 | 0.01 | 0.01 | 71 | 1011.0 |
| 20260904143052 | 75 | 233 | 2.6 | 12.2 | 0.00 | 0.01 | 0.01 | 75 | 1011.0 |
| 20260904142554 | 74 | 232 | 5.2 | 13.0 | 0.00 | 0.01 | 0.01 | 74 | 1011.1 |
| 20260904142050 | 74 | 189 | 2.6 | 11.3 | 0.00 | 0.01 | 0.01 | 75 | 1011.2 |
| 20260904141549 | 74 | 190 | 4.3 | 13.0 | 0.00 | 0.01 | 0.01 | 77 | 1011.1 |
| 20260904141049 | 73 | 228 | 2.6 | 13.0 | 0.00 | 0.01 | 0.01 | 76 | 1011.3 |
| 20260904140549 | 73 | 207 | 2.6 | 10.4 | 0.00 | 0.01 | 0.01 | 77 | 1011.2 |
| 20260904140051 | 73 | 203 | 4.3 | 13.0 | 0.00 | 0.01 | 0.01 | 75 | 1011.3 |
| 20260904135548 | 73 | 264 | 2.6 | 8.7 | 0.00 | 0.01 | 0.01 | 76 | 1011.4 |
| 20260904135047 | 74 | 187 | 2.6 | 10.4 | 0.00 | 0.01 | 0.01 | 77 | 1011.5 |
| 20260904134548 | 73 | 221 | 4.3 | 10.4 | 0.00 | 0.01 | 0.01 | 77 | 1011.6 |
| 20260904134050 | 72 | 148 | 2.6 | 12.2 | 0.00 | 0.01 | 0.01 | 79 | 1011.7 |
| 20260904133542 | 72 | 292 | 5.2 | 12.2 | 0.00 | 0.01 | 0.01 | 78 | 1011.7 |
| 20260904133041 | 72 | 255 | 2.6 | 9.6 | 0.00 | 0.01 | 0.01 | 79 | 1011.7 |
| 20260904132541 | 71 | 202 | 2.6 | 8.7 | 0.00 | 0.01 | 0.01 | 80 | 1012.0 |
| 20260904132040 | 71 | 255 | 3.5 | 10.4 | 0.00 | 0.01 | 0.01 | 80 | 1012.1 |
| 20260904131538 | 71 | 191 | 3.5 | 10.4 | 0.00 | 0.01 | 0.01 | 80 | 1012.1 |
| 20260904131037 | 71 | 215 | 2.6 | 10.4 | 0.00 | 0.01 | 0.01 | 81 | 1012.2 |
| 20260904130537 | 70 | 232 | 3.5 | 10.4 | 0.00 | 0.01 | 0.01 | 80 | 1012.2 |
| 20260904130036 | 70 | 188 | 2.6 | 10.4 | 0.00 | 0.01 | 0.01 | 84 | 1012.3 |
| 20260904125537 | 70 | 223 | 3.5 | 10.4 | 0.00 | 0.01 | 0.01 | 83 | 1012.3 |
| 20260904125034 | 69 | 191 | 1.7 | 5.2 | 0.00 | 0.01 | 0.01 | 84 | 1012.4 |
| 20260904124534 | 69 | 157 | 0.9 | 6.1 | 0.00 | 0.01 | 0.01 | 84 | 1012.5 |
| 20260904124031 | 69 | 237 | 0.9 | 7.0 | 0.00 | 0.01 | 0.01 | 84 | 1012.6 |
| 20260904123535 | 69 | 225 | 1.7 | 7.0 | 0.00 | 0.01 | 0.01 | 84 | 1012.7 |
| 20260904123030 | 69 | 180 | 1.7 | 5.2 | 0.00 | 0.01 | 0.01 | 84 | 1012.7 |
| 20260904122530 | 69 | 182 | 2.6 | 5.2 | 0.00 | 0.01 | 0.01 | 84 | 1012.9 |
| 20260904122030 | 69 | 177 | 1.7 | 7.8 | 0.00 | 0.01 | 0.01 | 84 | 1012.9 |
| 20260904121529 | 68 | 199 | 1.7 | 7.8 | 0.00 | 0.01 | 0.01 | 84 | 1013.1 |
| 20260904121034 | 68 | 178 | 2.6 | 7.8 | 0.00 | 0.01 | 0.01 | 84 | 1013.2 |
| 20260904120528 | 68 | 235 | 1.7 | 7.0 | 0.00 | 0.01 | 0.01 | 84 | 1013.2 |
| 20260904120027 | 68 | 191 | 1.7 | 8.7 | 0.00 | 0.01 | 0.01 | 84 | 1013.3 |
| 20260904115527 | 68 | 170 | 2.6 | 8.7 | 0.00 | 0.01 | 0.01 | 83 | 1013.3 |
| 20260904115027 | 68 | 208 | 1.7 | 7.8 | 0.00 | 0.01 | 0.01 | 83 | 1013.5 |
| 20260904114526 | 68 | 200 | 1.7 | 7.8 | 0.00 | 0.01 | 0.01 | 83 | 1013.6 |
| 20260904114026 | 68 | 212 | 1.7 | 7.8 | 0.00 | 0.01 | 0.01 | 83 | 1013.7 |
| 20260904113526 | 68 | 199 | 1.7 | 8.7 | 0.00 | 0.01 | 0.01 | 82 | 1013.6 |
| 20260904113025 | 69 | 221 | 4.3 | 9.6 | 0.00 | 0.01 | 0.01 | 81 | 1013.8 |
| 20260904112525 | 69 | 161 | 2.6 | 9.6 | 0.00 | 0.01 | 0.01 | 82 | 1013.7 |
| 20260904112028 | 69 | 211 | 3.5 | 8.7 | 0.00 | 0.01 | 0.01 | 81 | 1014.1 |
| 20260904111527 | 69 | 269 | 1.7 | 6.1 | 0.00 | 0.01 | 0.01 | 83 | 1013.9 |
| 20260904111024 | 69 | 224 | 2.6 | 7.0 | 0.00 | 0.01 | 0.01 | 82 | 1014.0 |
| 20260904110523 | 69 | 246 | 1.7 | 7.0 | 0.00 | 0.01 | 0.01 | 82 | 1014.1 |
| 20260904110035 | 69 | 301 | 1.7 | 7.8 | 0.00 | 0.01 | 0.01 | 83 | 1014.2 |
| 20260904105521 | 68 | 284 | 2.6 | 9.6 | 0.00 | 0.01 | 0.01 | 83 | 1014.2 |
| 20260904105020 | 68 | 275 | 4.3 | 9.6 | 0.00 | 0.01 | 0.01 | 82 | 1014.2 |
| 20260904104520 | 68 | 248 | 4.3 | 12.2 | 0.00 | 0.01 | 0.01 | 83 | 1014.3 |
| 20260904104018 | 68 | 275 | 4.3 | 12.2 | 0.00 | 0.01 | 0.01 | 83 | 1014.4 |
| 20260904103520 | 68 | 250 | 4.3 | 8.7 | 0.00 | 0.01 | 0.01 | 82 | 1014.4 |
| 20260904103018 | 68 | 186 | 3.5 | 10.4 | 0.00 | 0.01 | 0.01 | 83 | 1014.5 |
| 20260904102516 | 68 | 204 | 2.6 | 10.4 | 0.00 | 0.01 | 0.01 | 85 | 1014.4 |
| 20260904102015 | 67 | 180 | 3.5 | 9.6 | 0.00 | 0.01 | 0.01 | 84 | 1014.5 |
| 20260904101516 | 67 | 229 | 3.5 | 9.6 | 0.00 | 0.01 | 0.01 | 85 | 1014.6 |
| 20260904101013 | 66 | 236 | 2.6 | 8.7 | 0.00 | 0.01 | 0.01 | 87 | 1014.6 |
| 20260904100513 | 66 | 229 | 2.6 | 8.7 | 0.00 | 0.01 | 0.01 | 88 | 1014.8 |
| 20260904100010 | 65 | 282 | 2.6 | 8.7 | 0.00 | 0.01 | 0.01 | 88 | 1014.9 |
| 20260904095509 | 65 | 238 | 1.7 | 6.1 | 0.00 | 0.01 | 0.01 | 90 | 1015.0 |
| 20260904095007 | 65 | 234 | 2.6 | 5.2 | 0.00 | 0.01 | 0.01 | 90 | 1015.0 |
| 20260904094507 | 65 | 205 | 0.9 | 7.8 | 0.00 | 0.01 | 0.01 | 90 | 1015.0 |
| 20260904094007 | 65 | 201 | 3.5 | 7.8 | 0.00 | 0.01 | 0.01 | 91 | 1015.0 |
| 20260904093506 | 64 | 140 | 2.6 | 6.1 | 0.00 | 0.01 | 0.01 | 90 | 1015.1 |
| 20260904093004 | 65 | 196 | 2.6 | 7.0 | 0.00 | 0.01 | 0.01 | 91 | 1015.2 |
| 20260904092504 | 65 | 255 | 1.7 | 7.8 | 0.00 | 0.01 | 0.01 | 91 | 1015.3 |
| 20260904092004 | 64 | 298 | 2.6 | 8.7 | 0.00 | 0.01 | 0.01 | 91 | 1015.4 |
| 20260904091504 | 64 | 234 | 2.6 | 10.4 | 0.00 | 0.01 | 0.01 | 92 | 1015.5 |
| 20260904091001 | 64 | 212 | 3.5 | 10.4 | 0.00 | 0.01 | 0.01 | 93 | 1015.5 |
| 20260904090500 | 64 | 219 | 2.6 | 7.8 | 0.00 | 0.01 | 0.01 | 93 | 1015.4 |
| 20260904090101 | 63 | 248 | 3.5 | 7.8 | 0.00 | 0.01 | 0.01 | 93 | 1015.5 |
| 20260904085601 | 63 | 249 | 2.6 | 7.8 | 0.00 | 0.01 | 0.01 | 94 | 1015.7 |
| 20260904085059 | 63 | 223 | 2.6 | 7.8 | 0.00 | 0.01 | 0.01 | 94 | 1015.6 |
| 20260904084600 | 63 | 231 | 0.9 | 7.0 | 0.00 | 0.01 | 0.01 | 95 | 1015.6 |
| 20260904084100 | 63 | 246 | 2.6 | 11.3 | 0.00 | 0.01 | 0.01 | 96 | 1015.5 |
| 20260904083559 | 62 | 233 | 3.5 | 11.3 | 0.00 | 0.01 | 0.01 | 96 | 1015.6 |
| 20260904083054 | 62 | 250 | 4.3 | 8.7 | 0.00 | 0.01 | 0.01 | 97 | 1015.6 |
| 20260904082553 | 61 | 199 | 2.6 | 8.7 | 0.01 | 0.01 | 0.01 | 97 | 1015.7 |
| 20260904082053 | 61 | 248 | 3.5 | 7.0 | 0.01 | 0.01 | 0.01 | 98 | 1015.7 |
| 20260904081552 | 60 | 240 | 2.6 | 7.0 | 0.01 | 0.01 | 0.01 | 98 | 1015.8 |
| 20260904081152 | 60 | 311 | 2.6 | 7.0 | 0.01 | 0.01 | 0.01 | 97 | 1015.7 |
| 20260904080551 | 60 | 190 | 1.7 | 6.1 | 0.01 | 0.01 | 0.01 | 98 | 1015.9 |
| 20260904080056 | 60 | 227 | 0.0 | 5.2 | 0.01 | 0.01 | 0.01 | 97 | 1015.9 |
| 20260904075551 | 60 | 225 | 1.7 | 5.2 | 0.01 | 0.01 | 0.01 | 97 | 1015.9 |
| 20260904075050 | 60 | 250 | 0.9 | 3.5 | 0.01 | 0.01 | 0.01 | 97 | 1015.9 |
| 20260904074554 | 60 | 264 | 0.9 | 3.5 | 0.01 | 0.01 | 0.01 | 97 | 1016.0 |
| 20260904074048 | 60 | 180 | 0.9 | 5.2 | 0.01 | 0.01 | 0.01 | 97 | 1016.1 |
| 20260904073547 | 60 | 186 | 0.9 | 5.2 | 0.01 | 0.01 | 0.01 | 96 | 1016.1 |
| 20260904073047 | 60 | 185 | 0.9 | 6.1 | 0.01 | 0.01 | 0.01 | 96 | 1016.3 |
| 20260904072546 | 60 | 232 | 0.9 | 7.0 | 0.00 | 0.00 | 0.00 | 95 | 1016.2 |
| 20260904072050 | 60 | 259 | 2.6 | 6.1 | 0.00 | 0.00 | 0.00 | 95 | 1016.4 |
| 20260904071548 | 61 | 242 | 1.7 | 5.2 | 0.00 | 0.00 | 0.00 | 94 | 1016.3 |
| 20260904071046 | 61 | 269 | 1.7 | 6.1 | 0.00 | 0.00 | 0.00 | 94 | 1016.3 |
| 20260904070548 | 61 | 295 | 0.0 | 4.3 | 0.00 | 0.00 | 0.00 | 93 | 1016.4 |
| 20260904070048 | 61 | 233 | 0.0 | 0.9 | 0.00 | 0.00 | 0.00 | 93 | 1016.3 |
| 20260904065543 | 61 | 271 | 0.0 | 0.9 | 0.00 | 0.00 | 0.00 | 93 | 1016.2 |
| 20260904065047 | 61 | 191 | 0.0 | 0.0 | 0.00 | 0.00 | 0.00 | 93 | 1016.3 |
| 20260904064546 | 61 | 182 | 0.0 | 0.0 | 0.00 | 0.00 | 0.00 | 93 | 1016.5 |
| 20260904064043 | 61 | 251 | 0.0 | 0.0 | 0.00 | 0.00 | 0.00 | 93 | 1016.2 |
| 20260904063543 | 61 | 248 | 0.0 | 0.0 | 0.00 | 0.00 | 0.00 | 93 | 1016.3 |
| 20260904063039 | 60 | 221 | 0.0 | 0.0 | 0.00 | 0.00 | 0.00 | 93 | 1016.2 |
| 20260904062538 | 60 | 221 | 0.0 | 0.0 | 0.00 | 0.00 | 0.00 | 93 | 1016.3 |
| 20260904062038 | 60 | 246 | 0.0 | 0.0 | 0.00 | 0.00 | 0.00 | 92 | 1016.4 |
| 20260904061548 | 60 | 244 | 0.0 | 0.0 | 0.00 | 0.00 | 0.00 | 92 | 1016.6 |
| 20260904061038 | 60 | 242 | 0.0 | 0.0 | 0.00 | 0.00 | 0.00 | 92 | 1016.5 |
| 20260904060538 | 60 | 230 | 0.0 | 0.0 | 0.00 | 0.00 | 0.00 | 92 | 1016.4 |
| 20260904060038 | 60 | 274 | 0.0 | 0.0 | 0.00 | 0.00 | 0.00 | 92 | 1016.6 |
| 20260904055538 | 60 | 195 | 0.0 | 0.0 | 0.00 | 0.00 | 0.00 | 92 | 1016.6 |
| 20260904055037 | 60 | 238 | 0.0 | 0.0 | 0.00 | 0.00 | 0.00 | 92 | 1016.6 |
| 20260904054537 | 60 | 263 | 0.0 | 0.0 | 0.00 | 0.00 | 0.00 | 92 | 1016.5 |
| 20260904054037 | 60 | 290 | 0.0 | 0.0 | 0.00 | 0.00 | 0.00 | 92 | 1016.5 |
| 20260904053537 | 60 | 238 | 0.0 | 0.0 | 0.00 | 0.00 | 0.00 | 92 | 1016.7 |
| 20260904053036 | 60 | 250 | 0.0 | 0.0 | 0.00 | 0.00 | 0.00 | 92 | 1016.7 |
| 20260904052536 | 60 | 247 | 0.0 | 0.0 | 0.00 | 0.00 | 0.00 | 92 | 1016.6 |
| 20260904052036 | 60 | 250 | 0.0 | 0.0 | 0.00 | 0.00 | 0.00 | 92 | 1016.4 |
| 20260904051538 | 60 | 181 | 0.0 | 0.0 | 0.00 | 0.00 | 0.00 | 92 | 1016.6 |
| 20260904051032 | 60 | 206 | 0.0 | 0.0 | 0.00 | 0.00 | 0.00 | 92 | 1016.8 |
| 20260904050535 | 60 | 206 | 0.0 | 0.0 | 0.00 | 0.00 | 0.00 | 92 | 1016.9 |
| 20260904050032 | 60 | 250 | 0.0 | 0.0 | 0.00 | 0.00 | 0.00 | 92 | 1017.1 |
| 20260904045532 | 60 | 264 | 0.0 | 0.0 | 0.00 | 0.00 | 0.00 | 92 | 1016.9 |
| 20260904045030 | 60 | 225 | 0.0 | 0.0 | 0.00 | 0.00 | 0.00 | 92 | 1017.0 |
| 20260904044535 | 60 | 229 | 0.0 | 0.0 | 0.00 | 0.00 | 0.00 | 92 | 1016.9 |
| 20260904044033 | 60 | 225 | 0.0 | 0.0 | 0.00 | 0.00 | 0.00 | 92 | 1016.6 |
| 20260904043528 | 59 | 235 | 0.0 | 0.0 | 0.00 | 0.00 | 0.00 | 92 | 1016.7 |
| 20260904043028 | 59 | 231 | 0.0 | 0.0 | 0.00 | 0.00 | 0.00 | 92 | 1016.8 |
| 20260904042527 | 59 | 231 | 0.0 | 0.0 | 0.00 | 0.00 | 0.00 | 92 | 1016.9 |
| 20260904042027 | 59 | 247 | 0.0 | 0.0 | 0.00 | 0.00 | 0.00 | 92 | 1016.9 |
| 20260904041526 | 59 | 243 | 0.0 | 0.0 | 0.00 | 0.00 | 0.00 | 92 | 1016.9 |
| 20260904041027 | 59 | 248 | 0.0 | 0.0 | 0.00 | 0.00 | 0.00 | 92 | 1017.0 |
| 20260904040526 | 59 | 252 | 0.0 | 0.0 | 0.00 | 0.00 | 0.00 | 92 | 1017.0 |
| 20260904040026 | 59 | 250 | 0.0 | 0.0 | 0.00 | 0.00 | 0.00 | 92 | 1017.0 |
| 20260904035526 | 59 | 242 | 0.0 | 0.0 | 0.00 | 0.00 | 0.00 | 93 | 1017.0 |
| 20260904035125 | 59 | 242 | 0.0 | 0.0 | 0.00 | 0.00 | 0.00 | 93 | 1017.0 |
| 20260904034542 | 59 | 240 | 0.0 | 0.0 | 0.00 | 0.00 | 0.00 | 92 | 1017.1 |
| 20260904034026 | 59 | 262 | 0.0 | 0.0 | 0.00 | 0.00 | 0.00 | 93 | 1017.2 |
| 20260904033524 | 59 | 265 | 0.0 | 0.0 | 0.00 | 0.00 | 0.00 | 93 | 1017.3 |
| 20260904033024 | 58 | 265 | 0.0 | 0.0 | 0.00 | 0.00 | 0.00 | 93 | 1017.2 |
| 20260904032522 | 58 | 194 | 0.0 | 0.0 | 0.00 | 0.00 | 0.00 | 93 | 1017.2 |
| 20260904032022 | 58 | 171 | 0.0 | 0.0 | 0.00 | 0.00 | 0.00 | 92 | 1017.2 |
| 20260904031522 | 58 | 171 | 0.0 | 0.0 | 0.00 | 0.00 | 0.00 | 92 | 1017.2 |
| 20260904031021 | 59 | 171 | 0.0 | 0.0 | 0.00 | 0.00 | 0.00 | 92 | 1017.1 |
| 20260904030521 | 59 | 171 | 0.0 | 0.0 | 0.00 | 0.00 | 0.00 | 92 | 1017.2 |
| 20260904030021 | 59 | 171 | 0.0 | 0.0 | 0.00 | 0.00 | 0.00 | 92 | 1017.2 |
| 20260904025521 | 59 | 238 | 0.0 | 0.0 | 0.00 | 0.00 | 0.00 | 92 | 1017.2 |
| 20260904025020 | 59 | 238 | 0.0 | 0.0 | 0.00 | 0.00 | 0.00 | 92 | 1017.3 |
| 20260904024520 | 59 | 238 | 0.0 | 0.0 | 0.00 | 0.00 | 0.00 | 92 | 1017.3 |
| 20260904024020 | 59 | 238 | 0.0 | 0.0 | 0.00 | 0.00 | 0.00 | 92 | 1017.4 |
| 20260904023519 | 59 | 257 | 0.0 | 0.0 | 0.00 | 0.00 | 0.00 | 92 | 1017.3 |
| 20260904023019 | 58 | 274 | 0.0 | 0.0 | 0.00 | 0.00 | 0.00 | 92 | 1017.5 |
| 20260904022524 | 58 | 274 | 0.0 | 0.0 | 0.00 | 0.00 | 0.00 | 92 | 1017.3 |
| 20260904022021 | 58 | 274 | 0.0 | 0.0 | 0.00 | 0.00 | 0.00 | 92 | 1017.3 |
| 20260904021517 | 58 | 242 | 0.0 | 0.0 | 0.00 | 0.00 | 0.00 | 92 | 1017.3 |
| 20260904021017 | 59 | 266 | 0.0 | 0.0 | 0.00 | 0.00 | 0.00 | 91 | 1017.4 |
| 20260904020516 | 59 | 266 | 0.0 | 0.0 | 0.00 | 0.00 | 0.00 | 91 | 1017.5 |
| 20260904020016 | 59 | 266 | 0.0 | 0.0 | 0.00 | 0.00 | 0.00 | 91 | 1017.5 |
| 20260904015520 | 59 | 266 | 0.0 | 0.0 | 0.00 | 0.00 | 0.00 | 91 | 1017.5 |
| 20260904015015 | 59 | 266 | 0.0 | 0.0 | 0.00 | 0.00 | 0.00 | 91 | 1017.6 |
| 20260904014515 | 59 | 266 | 0.0 | 0.0 | 0.00 | 0.00 | 0.00 | 91 | 1017.6 |
| 20260904014015 | 59 | 266 | 0.0 | 0.0 | 0.00 | 0.00 | 0.00 | 90 | 1017.6 |
| 20260904013513 | 59 | 219 | 0.0 | 0.0 | 0.00 | 0.00 | 0.00 | 90 | 1017.7 |
| 20260904013013 | 59 | 219 | 0.0 | 0.0 | 0.00 | 0.00 | 0.00 | 90 | 1017.6 |
| 20260904012513 | 59 | 200 | 0.0 | 0.0 | 0.00 | 0.00 | 0.00 | 90 | 1017.8 |
| 20260904012013 | 59 | 196 | 0.0 | 0.0 | 0.00 | 0.00 | 0.00 | 90 | 1017.8 |
| 20260904011537 | 60 | 196 | 0.0 | 0.0 | 0.00 | 0.00 | 0.00 | 89 | 1017.8 |
| 20260904011012 | 60 | 196 | 0.0 | 0.0 | 0.00 | 0.00 | 0.00 | 89 | 1017.6 |
| 20260904010511 | 60 | 196 | 0.0 | 0.0 | 0.00 | 0.00 | 0.00 | 89 | 1017.8 |
| 20260904010012 | 60 | 198 | 0.0 | 0.0 | 0.00 | 0.00 | 0.00 | 89 | 1017.9 |
| 20260904005515 | 60 | 180 | 0.0 | 0.0 | 0.00 | 0.00 | 0.00 | 89 | 1017.8 |
| 20260904005011 | 60 | 180 | 0.0 | 0.0 | 0.00 | 0.00 | 0.00 | 89 | 1017.8 |
| 20260904004511 | 60 | 144 | 0.0 | 0.0 | 0.00 | 0.00 | 0.00 | 89 | 1017.9 |
| 20260904004014 | 60 | 229 | 0.0 | 0.0 | 0.00 | 0.00 | 0.00 | 89 | 1017.8 |
| 20260904003516 | 60 | 233 | 0.0 | 0.0 | 0.00 | 0.00 | 0.00 | 89 | 1018.1 |
| 20260904003013 | 60 | 210 | 0.0 | 0.0 | 0.00 | 0.00 | 0.00 | 89 | 1017.9 |
| 20260904002510 | 60 | 210 | 0.0 | 0.0 | 0.00 | 0.00 | 0.00 | 89 | 1017.8 |
| 20260904002010 | 59 | 210 | 0.0 | 0.0 | 0.00 | 0.00 | 0.00 | 89 | 1017.7 |
| 20260904001510 | 60 | 210 | 0.0 | 0.0 | 0.00 | 0.00 | 0.00 | 89 | 1017.8 |
| 20260904001009 | 60 | 210 | 0.0 | 0.0 | 0.00 | 0.00 | 0.00 | 89 | 1017.7 |
| 20260904000509 | 60 | 210 | 0.0 | 0.0 | 0.00 | 0.00 | 0.00 | 89 | 1017.7 |
| 20260904000011 | 60 | 210 | 0.0 | 0.0 | 0.00 | 0.00 | 0.00 | 89 | 1017.9 |
| 20260903235511 | 60 | 210 | 0.0 | 0.0 | 0.00 | 0.00 | 0.00 | 89 | 1018.0 |
| 20260903235008 | 60 | 210 | 0.0 | 0.0 | 0.00 | 0.00 | 0.00 | 89 | 1018.0 |
| 20260903234507 | 60 | 210 | 0.0 | 0.0 | 0.00 | 0.00 | 0.00 | 89 | 1018.1 |
| 20260903234007 | 60 | 210 | 0.0 | 0.0 | 0.00 | 0.00 | 0.00 | 89 | 1018.3 |
| 20260903233505 | 60 | 210 | 0.0 | 0.0 | 0.00 | 0.00 | 0.00 | 88 | 1018.3 |
| 20260903233016 | 60 | 210 | 0.0 | 0.0 | 0.00 | 0.00 | 0.00 | 88 | 1018.4 |